Location: Aix-en-Ergny
(50.5839°N, 1.9996°E)
Time: 20:38:44
(UTC+00:00)

Cosmos 2322 Rocket - Pass Details

Date: 23 October 2019
Orbit: 833 x 850 km, 71.0° (Epoch: 17 November)

Event Time Altitude Azimuth Distance (km) Brightness Sun altitude
Exits shadow 02:34:58 20° 5° (N) 1,845 4.2 -36.4°
Drops below altitude 10° 02:36:56 10° 18° (NNE) 2,456 5.1 -36.2°
Sets 02:39:37 0° 28° (NNE) 3,395 6.1 -35.8°
